User: anonymous   Login
Location: Bush Observatory
(40.2653°N, 94.3194°W)
Time: 11:55:29
(UTC-06:00)
Language:

Cosmos 1933 Rocket - Orbit

View from above orbital plane
View from above orbital plane
View from above satellite
View from above satellite

Ground track
Ground track

The orbit data is extracted from the following two-line orbital elements,

1 18959U 88020B   16039.61903026  .00000294  00000-0  33000-4 0  9991
2 18959  82.5380  12.9189 0016165 333.2614  26.7765 14.83242317507269
Epoch (UTC): 08 February 2016 14:51:24
Eccentricity: 0.0016165
inclination: 82.5380°
perigee height: 608 km
apogee height: 630 km
right ascension of ascending node: 12.9189°
argument of perigee: 333.2614°
revolutions per day: 14.83242317
mean anomaly at epoch: 26.7765°
orbit number at epoch: 50726

The dashed part of the orbit path shows where the satellite is in the earth's shadow,  

DLR